Location: Knowlton
(51.2333°N, 1.2667°E)
Time: 03:59:48
(UTC+00:00)

Sich 1 - Pass Details

Date: 18 April 2021
Orbit: 593 x 626 km, 82.5° (Epoch: 06 May)

Event Time Altitude Azimuth Distance (km) Brightness Sun altitude
Rises 22:14:59 0° 355° (N) 2,849 7.6 -24.0°
Reaches altitude 10° 22:17:21 10° 4° (N) 1,940 6.4 -24.2°
Enters shadow 22:20:55 36° 59° (ENE) 959 4.0 -24.4°
